Tracking 30074 objects as of 14-Jan-2025
HD Live streaming from Space Station
objects crossing your sky now

OPS 0054 (DMSP 5A F1)

Track OPS 0054 (DMSP 5A F1) now!
10-day predictions
OPS 0054 (DMSP 5A F1) is classified as:


NORAD ID: 4331
Int'l Code: 1970-012A
Perigee: 743.4 km
Apogee: 826.8 km
Inclination: 99.0 °
Period: 100.4 minutes
Semi major axis: 7156 km
RCS: 0.986 m2 (medium)
Launch date: February 11, 1970
Source: United States (US)
Launch site: AIR FORCE WESTERN TEST RANGE (AFWTR)
Your satellite tracking list
Your tracking list is empty




NASA's NSSDC Master Catalog

Two Line Element Set (TLE):
1 04331U 70012A   25013.95849375  .00000423  00000-0  16491-3 0  9995
2 04331  98.9527 167.0320 0058286  49.1923 311.4295 14.34135043862749
Source of the keplerian elements: AFSPC